Regional Weather Roundup
Issued by NWS Albany, NY

Home | Current Version | Previous Version | Text Only | Print | Product List | Glossary On
Versions: 1 2 3 4 5 6 7 8 9 10 11 12 13 14 15 16 17 18 19 20 21 22 23 24 25 26 27 28 29 30 31 32 33 34 35 36 37 38 39 40 41 42 43 44 45 46 47 48 49 50
000
ASUS41 KALY 010810
RWRALY

NEW YORK STATE HOURLY WEATHER ROUNDUP
NATIONAL WEATHER SERVICE ALBANY NY
400 AM EDT TUE SEP 01 2015

NOTE: "FAIR" INDICATES FEW OR NO CLOUDS BELOW 12,000 FEET WITH NO
SIGNIFICANT WEATHER AND/OR NO OBSTRUCTIONS TO VISIBILITY.

NYZ032-033-038>043-046>054-057>066-NYZ062>081-010900-
EAST


CITY           SKY/WX    TMP DP  RH WIND       PRES   REMARKS
ALBANY         PTCLDY    65  62  90 CALM      30.03R
GLENS FALLS    CLEAR     60  58  92 CALM      30.03R FOG
POUGHKEEPSIE   CLEAR     65  62  90 CALM      30.01S
MONTGOMERY     CLEAR     65  63  93 SW3       30.02S FOG
WHITE PLAINS   CLEAR     69  66  90 NW3       30.01S
ISLIP          PTCLDY    72  66  81 N5        29.98S
NEW YORK CITY  PTCLDY    79  67  66 N3        30.00R
CENTRAL PARK   CLEAR     79  66  64 CALM      30.04R
$$

NYZ005>009-017-018-044>046-055-056-010900-
CENTRAL


CITY           SKY/WX    TMP DP  RH WIND       PRES   REMARKS
FULTON         CLEAR     61  59  93 S3        30.04S FOG
SYRACUSE       MOCLDY    67  64  90 CALM      30.04R
ROME           MOCLDY    60  59  96 SE5       30.06R
ELMIRA         FOG       59  59 100 CALM      30.07S VSB 1/2
BINGHAMTON     PTCLDY    66  64  93 W5        30.09R FOG
MONTICELLO       N/A     63  63 100 CALM      30.08F VSB 3/4
$$

NYZ026>034-041>043-010900-
NORTH


CITY           SKY/WX    TMP DP  RH WIND       PRES   REMARKS
WATERTOWN      FOG       59  58  96 CALM      30.03S VSB 3/4
FORT DRUM      NOT AVBL
MASSENA        FOG       56  55  97 CALM      30.04R VSB 3/4
SARANAC LAKE   FOG       52  52 100 CALM      30.07R VSB<1/4
PLATTSBURGH    MOCLDY    64  60  87 W3        30.02R
$$

NYZ001>004-010>016-019>021-010900-
WEST


CITY           SKY/WX    TMP DP  RH WIND       PRES   REMARKS
NIAGARA FALLS  FOG       65  64  97 CALM      30.06R VSB 1/4
BUFFALO        MOCLDY    70  67  90 SW6       30.07R FOG
DUNKIRK        CLEAR     66  64  93 S5        30.07S
JAMESTOWN      CLOUDY    63  59  88 SW6       30.11S VSB<1/4
WELLSVILLE     CLEAR     63  61  93 W3        30.14S FOG
ROCHESTER      MOCLDY    67  64  90 W5        30.06R FOG
PENN YAN       CLEAR     66  64  93 SW5       30.07S FOG
$$

             KEY
       WCI = WIND CHILL INDEX
       VSB = VISIBILITY
       HX  = HEAT INDEX
$$


USA.gov is the U.S. government's official web portal to all federal, state and local government web resources and services.